CAPE
0 0 0 0 0 0 0 0 0 0 0 0 0 0 0 0 0 9 106 169 613 735 771 795 877 1011 1194 1125 1009 1031 999 1069 1137 1054 842 710 683 747 699 597 539 882 1076 1163
11 2 0 0 3 25 2 0 0 0 0 0 204 10 316 132 5 0 4 12 418 739 873 900 912 1097 1374 1342 1259 1226 1138 1083 1131 1114 1077 1016 906 856 882 893 821 653 556 548
16 30 20 5 1 8 33 28 1 0 0 24 690 629 664 756 808 1038 1318 1427 806 880 934 1048 1069 1123 1474 1529 1484 1433 1316 1220 1170 1241 1220 1228 1175 1079 1008 996 961 924 897 807
5 27 19 24 13 5 16 184 138 207 287 871 777 869 920 953 1029 1042 1521 2196 2402 1898 1362 1241 1226 1258 1541 1660 1703 1683 1595 1470 1350 1305 1315 1297 1291 1267 1219 1185 1188 1190 1173 1182
0 0 0 1 32 23 30 15 5 271 859 872 896 976 965 993 1021 1156 1254 1900 2277 2384 2633 2350 1704 1573 1635 1875 1872 1917 1864 1792 1675 1537 1499 1481 1470 1382 1262 1213 1259 1478 1487 1555
0 0 0 0 18 35 30 15 3 1 99 780 819 803 898 1157 1184 1178 1108 1361 2068 2323 2645 3119 2831 2248 1987 1922 2004 2018 2003 1964 1932 1902 1810 1749 1689 1627 1603 1596 1595 1775 2022 1991
0 0 0 0 0 1 9 4 18 74 2 308 412 170 334 924 1131 1186 1247 1223 1317 1358 1918 3212 3485 3034 2697 2421 2268 1948 1965 2025 2017 2028 2041 1980 1959 1964 1948 2171 2355 2416 2451 2194
0 0 0 0 0 0 0 0 0 136 351 486 467 540 553 689 919 1014 904 1042 1000 1245 1336 2234 3127 3548 3061 3015 2889 2637 1965 1993 2052 2095 2145 2159 2140 2213 2375 2539 2586 2452 2259 2104
0 2 2 0 0 1 4 0 0 0 156 472 470 601 603 598 485 482 375 173 233 372 457 1189 1785 2901 3080 3065 3015 2920 2982 2875 2601 2527 2495 2483 2536 2707 2757 2745 2927 2814 2643 2091
0 0 0 0 0 0 3 16 11 1 10 32 132 184 189 154 261 205 144 100 139 50 151 496 1280 1702 2186 2395 2704 2763 2851 2825 2945 2926 3126 3195 3252 3174 3217 3245 2423 1890 1356 803
0 0 0 0 0 0 2 6 30 45 7 6 3 24 74 126 149 69 23 16 0 28 134 136 1145 1230 1634 1963 1812 1644 1554 1459 1739 2049 1911 2271 2602 2998 3047 2477 1632 1004 587 203
0 0 0 0 0 0 0 0 0 0 2 11 1 4 1 1 2 11 50 63 13 0 70 26 678 1109 1308 1531 1621 1281 527 81 21 1106 1314 1188 1967 1993 1842 1289 714 279 17 0
0 0 0 0 0 0 0 0 0 0 5 2 0 0 0 0 0 0 0 0 0 0 0 13 27 113 1090 1266 1363 1441 1428 1203 1113 1219 1350 1347 1117 1140 918 316 81 0 0 0
1 0 0 0 0 0 0 0 0 0 0 0 1 10 23 10 0 0 0 0 0 0 0 0 0 21 17 828 1105 1044 1173 1205 1109 1190 1146 928 848 620 409 20 0 0 0 0
10 19 10 5 0 0 0 0 0 0 0 0 8 0 0 0 0 3 3 9 4 0 0 0 0 0 54 516 821 924 893 811 863 950 898 862 678 357 231 7 0 0 0 0
1 1 0 0 3 0 2 0 0 0 0 0 0 0 6 10 6 5 15 30 7 0 5 0 0 0 417 838 742 653 811 609 691 538 605 585 580 451 38 0 0 0 0 0
26 1 4 0 10 2 0 0 0 0 0 0 0 0 0 0 3 2 11 36 0 0 46 20 0 0 704 972 821 656 712 707 475 332 412 413 489 174 0 0 0 0 0 0
5 2 18 20 5 16 8 2 0 0 0 0 0 0 0 0 0 12 29 66 15 101 132 198 381 366 999 1184 1076 839 735 447 310 216 170 174 123 6 0 0 0 0 0 0
1 24 41 57 40 23 9 1 1 0 0 0 0 0 0 4 0 0 0 22 88 168 338 340 314 984 1275 1264 1039 871 658 305 143 40 60 61 33 30 17 0 0 0 0 0
3 62 45 7 59 48 34 15 5 6 12 2 0 40 57 33 2 0 0 13 115 227 363 396 224 286 947 1077 878 731 623 487 167 70 81 40 37 50 6 0 0 0 0 0
3 9 81 13 2 0 4 31 22 210 203 83 68 89 103 90 51 80 80 136 224 238 335 383 348 236 418 910 772 583 451 526 279 148 75 63 48 39 1 1 0 0 0 0
2 6 12 8 11 2 3 0 5 19 21 46 81 59 94 103 115 150 201 232 290 295 276 357 292 258 501 817 555 537 386 469 356 229 31 28 51 3 0 0 0 0 0 0
6 0 8 2 0 3 4 22 15 6 26 13 109 67 329 126 94 133 182 204 229 321 370 343 329 398 435 639 533 524 404 328 276 132 69 98 83 38 14 10 0 0 0 0
1 8 7 1 0 0 16 22 30 44 49 33 52 24 79 109 236 337 217 238 313 291 288 336 465 490 585 550 618 540 405 313 220 93 101 177 41 41 9 0 4 0 0 0
0 0 1 0 0 22 17 31 7 9 22 0 7 55 65 50 119 248 161 250 320 373 294 378 404 490 630 491 747 603 711 447 258 171 164 75 95 33 1 22 38 30 33 26
0 0 0 0 0 0 1 11 36 16 0 1 23 41 19 44 77 184 212 154 84 107 259 176 165 167 93 260 187 153 212 259 254 127 92 57 45 43 15 31 48 69 78 85
0 0 0 0 0 0 0 1 5 7 3 0 6 19 32 32 15 67 89 103 65 56 59 72 24 14 60 67 89 105 106 63 99 145 105 92 60 53 24 52 48 66 102 83
CIN
0 0 0 0 0 0 0 0 0 0 0 0 0 -2 0 0 0 -68 -78 -84 -208 -202 -173 -139 -472 -508 -495 -458 -452 -417 -309 -325 -295 -259 -276 -282 -269 -244 -198 -168 -169 -83 -59 -46
-2 -11 0 0 -42 -33 -8 0 0 0 0 0 -273 -84 -314 -398 -264 0 -137 -163 -170 -173 -177 -205 -329 -465 -516 -455 -435 -412 -336 -316 -315 -269 -299 -286 -277 -265 -249 -217 -191 -181 -175 -190
-3 -4 -4 -4 -7 -13 -19 -18 -2 0 0 -57 -193 -150 -139 -151 -194 -191 -204 -301 -268 -213 -199 -218 -220 -486 -552 -477 -439 -398 -362 -286 -279 -291 -282 -299 -281 -278 -257 -247 -225 -215 -189 -165
-51 -1 -1 -4 -77 -42 -8 -226 -283 -271 -279 -149 -134 -160 -125 -141 -187 -123 -99 -115 -146 -204 -168 -174 -154 -213 -509 -459 -413 -364 -335 -309 -278 -265 -267 -242 -258 -267 -251 -223 -219 -193 -176 -153
0 0 0 -15 -46 -50 -64 -59 -62 -192 -111 -114 -85 -88 -96 -108 -127 -142 -78 -67 -88 -102 -123 -124 -62 -40 -114 -379 -380 -346 -327 -310 -294 -242 -225 -202 -176 -134 -217 -198 -230 -210 -168 -124
0 0 0 0 -18 -26 -37 -54 -50 -42 -216 -84 -65 -39 -34 -37 -69 -97 -118 -38 -42 -54 -161 -159 -80 -61 -47 -48 -314 -297 -329 -286 -279 -238 -195 -213 -158 -126 -126 -104 -128 -154 -94 -68
0 0 0 0 0 -7 -4 -10 -239 -163 -162 -200 -121 -133 -75 -18 -25 -47 -67 -93 -110 -131 -147 -87 -87 -68 -55 -43 -47 -35 -243 -232 -209 -213 -183 -152 -196 -142 -149 -156 -97 -54 -35 -20
0 0 0 0 0 0 0 0 0 -96 -58 -47 -70 -79 -55 -47 -42 -34 -28 -49 -60 -72 -108 -81 -42 -52 -46 -50 -33 -36 -45 -222 -226 -168 -204 -144 -106 -156 -110 -70 -48 -21 -7 -9
0 -2 -8 0 0 -2 -4 0 0 0 -27 -20 -25 -28 -24 -29 -46 -48 -16 -27 -18 -11 -75 -37 -41 -32 -64 -33 -54 -68 -106 -67 -49 -150 -136 -122 -56 -19 -12 -32 -7 -1 0 -6
0 0 0 0 0 0 -37 -15 -157 -3 -175 -10 -50 -56 -64 -64 -29 -15 -14 -5 -260 -278 -6 -287 -222 -178 -102 -104 -92 -58 -43 -21 -33 -36 -34 -32 -20 -6 -3 -3 -28 -49 -78 -128
0 0 0 0 0 0 -13 -14 -23 -153 -212 -236 -198 -141 -110 -69 -50 -30 -8 -11 -81 -260 -274 -286 -195 -177 -138 -78 -118 -120 -55 -79 -68 -41 -43 -30 -22 0 0 -17 -77 -156 -190 -267
0 0 0 0 0 0 0 0 0 0 -59 -235 -214 -109 -6 -2 -15 -52 -36 -38 -16 0 -275 -281 -216 -163 -131 -100 -60 -47 -217 -669 -239 -57 -49 -34 -39 -38 -36 -91 -185 -297 -101 0
0 0 0 0 0 -2 0 0 0 -1 -92 -63 0 0 0 0 0 0 0 0 0 -2 0 -272 -201 -170 -136 -98 -62 -58 -81 -85 -68 -91 -90 -48 -79 -74 -74 -208 -330 -1 0 0
-2 -1 0 0 0 0 0 0 0 0 0 0 -13 -74 -59 -35 0 0 0 0 0 0 0 0 0 -210 -154 -124 -52 -49 -57 -38 -62 -75 -100 -146 -191 -79 -80 -235 0 0 0 0
-3 -1 -7 -22 -12 0 0 0 0 0 0 -12 -15 0 0 0 -6 -17 -13 -58 -22 0 0 0 0 0 -219 -45 -78 -47 -17 -35 -29 -28 -60 -202 -173 -105 -95 -126 0 0 0 0
0 0 0 0 0 0 0 0 0 0 0 0 0 0 -36 -35 -23 -12 -72 -60 -27 0 -28 0 0 0 -142 -54 -24 -77 -26 -29 -34 -56 -108 -175 -210 -146 -87 0 0 0 0 0
-1 0 0 0 -5 0 0 0 0 0 0 0 0 0 0 0 -57 -21 -59 -41 -1 -2 -98 -101 0 0 -190 -76 -41 -24 -42 -20 -25 -53 -68 -129 -199 -250 0 0 0 0 0 0
0 0 -2 -1 -5 -14 -33 -9 0 0 0 0 0 0 0 0 0 -62 -43 -37 -62 -42 -37 -62 -99 -74 -158 -106 -77 -65 -38 -47 -48 -71 -84 -118 -190 -25 0 0 0 0 0 0
-2 -5 0 0 0 -6 -23 -16 -10 0 -13 0 0 0 0 -49 0 0 0 -57 -47 -48 -33 -16 -96 -72 -91 -84 -90 -76 -25 -51 -71 -53 -56 0 -22 -17 -50 0 0 0 0 0
0 -7 0 -1 0 0 0 0 0 -5 -23 -8 0 -19 -35 -69 -63 0 0 -115 -66 -69 -50 -22 -27 -161 -74 -92 -85 -68 -50 -32 -67 -41 -10 -7 -16 -34 -15 0 0 0 0 0
0 0 0 0 0 0 0 -1 -4 -1 0 -11 -20 -36 -43 -58 -63 -49 -39 -57 -96 -72 -62 -41 -30 -26 -163 -83 -96 -81 -78 -39 -28 -31 -27 -16 -26 -30 0 -18 0 0 0 0
0 -1 0 0 -2 -2 -1 0 -3 -3 0 -10 -5 -22 -37 -57 -66 -55 -40 -62 -72 -60 -56 -40 -39 -27 -150 -72 -91 -64 -55 -40 -30 -12 -50 -20 -1 -31 0 0 0 0 0 0
-1 0 0 0 0 0 0 0 -2 -18 -6 0 -2 -13 -12 -52 -39 -37 -61 -59 -64 -53 -48 -42 -46 -36 -80 -67 -47 -59 -62 -48 -42 -47 -65 -23 -31 -15 -14 -16 0 0 0 0
0 0 0 0 0 0 0 0 0 0 0 0 0 -4 -10 -32 -26 -29 -47 -48 -35 -36 -37 -47 -46 -70 -57 -47 -24 -19 -40 -38 -41 -95 -37 -47 -41 -17 -13 -16 -10 0 0 0
0 0 -6 0 0 0 0 0 0 -6 -3 0 0 0 0 -8 -12 -14 -37 -41 -27 -25 -28 -41 -36 -30 -13 -21 -2 -3 -4 -7 -43 -59 -47 -47 -34 -36 -38 -16 -18 -2 0 -1
0 0 0 0 0 0 0 0 0 0 0 -7 0 0 0 0 0 0 -5 -15 -40 -30 -15 -20 -9 -4 -15 -1 -13 -14 -5 0 0 -1 -11 -18 -12 -1 -68 -49 -105 -77 -74 -66
0 0 0 0 0 0 0 0 0 0 0 0 0 0 0 0 -2 -1 0 0 -1 -5 -4 -2 -13 -1 -2 -21 -10 -2 -5 -7 -15 -5 -11 -15 -10 0 -22 -38 -24 -35 -19 -19
Wind_Speed
nan nan nan nan nan nan nan nan nan nan nan nan nan nan nan nan nan nan 34 30 25 13 16 21 15 21 24 23 21 19 18 18 15 16 13 12 12 13 14 16 13 13 14 15
nan nan nan nan nan nan nan nan nan nan nan nan 36 nan 38 41 nan nan nan nan 27 22 24 23 20 30 29 34 34 26 20 17 16 17 15 12 13 13 15 15 15 17 16 15
nan nan nan nan nan nan nan nan nan nan nan nan 45 48 47 44 46 45 44 36 30 30 31 27 26 28 30 38 38 31 22 19 18 20 17 13 14 15 16 17 19 19 19 20
nan nan nan nan nan nan nan 51 51 54 50 48 56 51 56 52 44 44 44 43 38 31 32 29 33 33 32 33 34 31 26 20 21 21 16 14 14 14 15 18 16 16 18 26
nan nan nan nan nan nan nan nan nan 61 62 57 56 59 57 55 54 52 46 44 45 42 37 39 44 43 33 29 24 24 25 20 18 19 17 17 16 17 19 20 20 20 26 31
nan nan nan nan nan nan nan nan nan nan nan 46 52 56 50 49 48 55 48 47 49 49 50 48 49 50 33 24 19 19 20 20 19 19 18 18 21 23 25 24 22 26 27 28
nan nan nan nan nan nan nan nan nan nan nan 46 47 46 54 63 63 59 55 55 54 54 55 55 52 50 37 31 16 18 23 27 28 26 23 25 29 30 29 29 30 31 31 30
nan nan nan nan nan nan nan nan nan 59 60 52 53 58 61 59 57 61 66 63 55 60 59 56 54 42 36 32 30 27 27 30 31 29 31 31 32 32 31 32 33 33 32 33
nan nan nan nan nan nan nan nan nan nan 49 50 52 54 58 53 58 62 62 63 62 64 60 56 57 51 40 44 40 38 37 35 36 40 39 39 38 34 35 35 30 29 32 32
nan nan nan nan nan nan nan nan nan nan nan nan 35 42 41 46 50 61 68 69 62 nan 59 56 59 56 51 49 44 47 46 45 43 42 44 47 45 39 37 34 32 31 32 34
nan nan nan nan nan nan nan nan nan nan nan nan nan nan nan 37 43 nan nan nan nan nan 62 57 51 49 47 48 52 53 53 57 51 46 46 53 47 40 34 33 30 35 34 34
nan nan nan nan nan nan nan nan nan nan nan nan nan nan nan nan nan nan nan nan nan nan nan nan 53 50 47 52 49 48 44 nan nan 40 50 48 42 44 43 40 35 37 nan nan
nan nan nan nan nan nan nan nan nan nan nan nan nan nan nan nan nan nan nan nan nan nan nan nan nan 49 52 54 51 50 48 50 39 36 46 47 49 50 36 35 nan nan nan nan
nan nan nan nan nan nan nan nan nan nan nan nan nan nan nan nan nan nan nan nan nan nan nan nan nan nan nan 52 54 56 51 47 44 46 47 56 61 49 31 nan nan nan nan nan
nan nan nan nan nan nan nan nan nan nan nan nan nan nan nan nan nan nan nan nan nan nan nan nan nan nan nan 50 43 48 57 48 50 47 46 51 55 39 25 nan nan nan nan nan
nan nan nan nan nan nan nan nan nan nan nan nan nan nan nan nan nan nan nan nan nan nan nan nan nan nan 53 50 45 46 51 50 47 47 52 55 55 44 nan nan nan nan nan nan
nan nan nan nan nan nan nan nan nan nan nan nan nan nan nan nan nan nan nan nan nan nan nan nan nan nan 50 48 44 41 43 49 44 45 42 46 54 41 nan nan nan nan nan nan
nan nan nan nan nan nan nan nan nan nan nan nan nan nan nan nan nan nan nan nan nan 32 35 35 40 45 43 39 41 38 35 39 44 44 48 50 41 nan nan nan nan nan nan nan
nan nan nan nan nan nan nan nan nan nan nan nan nan nan nan nan nan nan nan nan nan 23 23 33 36 40 40 34 37 38 40 42 38 nan nan nan nan nan nan nan nan nan nan nan
nan nan nan nan nan nan nan nan nan nan nan nan nan nan nan nan nan nan nan nan 13 17 20 26 30 33 36 33 31 35 37 36 30 nan nan nan nan nan nan nan nan nan nan nan
nan nan nan nan nan nan nan nan nan 8 9 nan nan nan 10 nan nan nan nan 13 11 18 15 19 26 27 31 32 27 32 35 36 39 27 nan nan nan nan nan nan nan nan nan nan
nan nan nan nan nan nan nan nan nan nan nan nan nan nan nan 10 15 14 9 11 16 13 19 22 24 20 26 26 28 27 30 34 33 32 nan nan nan nan nan nan nan nan nan nan
nan nan nan nan nan nan nan nan nan nan nan nan 2 nan 5 4 nan 8 7 11 12 10 12 17 19 19 23 26 20 20 25 25 25 29 nan nan nan nan nan nan nan nan nan nan
nan nan nan nan nan nan nan nan nan nan nan nan nan nan nan 8 7 6 5 10 12 14 12 16 19 22 25 24 23 18 21 23 24 nan 28 28 nan nan nan nan nan nan nan nan
nan nan nan nan nan nan nan nan nan nan nan nan nan nan nan nan 7 5 7 9 12 14 16 21 28 33 32 27 27 24 25 25 31 33 28 nan nan nan nan nan nan nan nan nan
nan nan nan nan nan nan nan nan nan nan nan nan nan nan nan nan nan 10 8 15 nan 13 16 16 18 23 nan 31 36 34 33 33 33 38 nan nan nan nan nan nan nan nan nan nan
nan nan nan nan nan nan nan nan nan nan nan nan nan nan nan nan nan nan nan 4 nan nan nan nan nan nan nan nan nan 34 38 nan nan 36 37 nan nan nan nan nan nan nan 36 nan
Wind_Direction
nan nan nan nan nan nan nan nan nan nan nan nan nan nan nan nan nan nan 286 301 307 335 328 325 349 354 353 334 322 321 306 295 297 289 284 280 273 277 280 283 285 275 269 266
nan nan nan nan nan nan nan nan nan nan nan nan 235 nan 242 250 nan nan nan nan 300 299 316 332 312 328 335 340 341 319 316 308 286 276 275 288 292 285 278 281 284 286 285 285
nan nan nan nan nan nan nan nan nan nan nan nan 253 255 247 244 253 258 261 261 279 304 319 323 317 318 319 317 316 329 311 297 288 279 281 285 293 292 295 294 290 291 290 287
nan nan nan nan nan nan nan 255 258 258 255 261 269 268 263 246 246 251 256 258 257 279 290 299 301 303 308 301 302 303 309 294 285 284 283 276 280 290 291 289 296 297 294 285
nan nan nan nan nan nan nan nan nan 252 259 260 258 256 256 254 251 248 247 250 259 263 274 287 300 301 302 305 297 297 302 285 284 280 280 280 291 293 291 285 283 287 279 285
nan nan nan nan nan nan nan nan nan nan nan 262 260 253 255 251 252 255 254 254 256 258 262 268 284 292 287 291 288 290 286 277 265 262 270 280 283 284 279 282 285 278 283 292
nan nan nan nan nan nan nan nan nan nan nan 241 252 257 254 257 255 256 257 255 256 257 260 266 268 280 284 280 276 258 245 244 252 260 267 271 270 271 278 280 279 273 277 280
nan nan nan nan nan nan nan nan nan 251 244 236 245 247 245 244 247 251 252 253 249 254 257 260 262 258 270 274 260 251 244 241 251 255 265 264 268 266 273 279 277 279 280 275
nan nan nan nan nan nan nan nan nan nan 258 259 255 251 247 248 244 241 249 249 249 251 246 243 251 252 249 258 266 245 241 240 241 252 260 262 266 267 268 273 278 277 273 273
nan nan nan nan nan nan nan nan nan nan nan nan 258 258 253 252 250 245 241 242 249 nan 250 249 251 249 253 259 259 251 243 234 233 242 248 253 257 258 263 268 272 273 276 279
nan nan nan nan nan nan nan nan nan nan nan nan nan nan nan 249 242 nan nan nan nan nan 244 249 244 247 252 254 256 255 251 236 229 232 237 238 239 245 253 258 274 280 276 284
nan nan nan nan nan nan nan nan nan nan nan nan nan nan nan nan nan nan nan nan nan nan nan nan 245 244 252 257 257 254 256 nan nan 232 241 244 234 241 237 244 264 273 nan nan
nan nan nan nan nan nan nan nan nan nan nan nan nan nan nan nan nan nan nan nan nan nan nan nan nan 247 249 253 255 255 254 264 266 241 250 259 251 242 240 237 nan nan nan nan
nan nan nan nan nan nan nan nan nan nan nan nan nan nan nan nan nan nan nan nan nan nan nan nan nan nan nan 254 254 256 252 254 252 245 247 254 253 238 229 nan nan nan nan nan
nan nan nan nan nan nan nan nan nan nan nan nan nan nan nan nan nan nan nan nan nan nan nan nan nan nan nan 257 258 256 254 254 254 247 248 254 251 245 240 nan nan nan nan nan
nan nan nan nan nan nan nan nan nan nan nan nan nan nan nan nan nan nan nan nan nan nan nan nan nan nan 253 259 259 254 252 252 251 248 250 255 246 262 nan nan nan nan nan nan
nan nan nan nan nan nan nan nan nan nan nan nan nan nan nan nan nan nan nan nan nan nan nan nan nan nan 251 259 258 249 245 244 248 242 245 255 255 240 nan nan nan nan nan nan
nan nan nan nan nan nan nan nan nan nan nan nan nan nan nan nan nan nan nan nan nan 244 250 246 234 235 243 248 252 251 244 245 249 240 240 236 233 nan nan nan nan nan nan nan
nan nan nan nan nan nan nan nan nan nan nan nan nan nan nan nan nan nan nan nan nan 247 235 241 233 226 227 238 246 238 238 245 260 nan nan nan nan nan nan nan nan nan nan nan
nan nan nan nan nan nan nan nan nan nan nan nan nan nan nan nan nan nan nan nan 265 254 236 235 229 224 223 239 253 234 236 236 243 nan nan nan nan nan nan nan nan nan nan nan
nan nan nan nan nan nan nan nan nan 347 328 nan nan nan 281 nan nan nan nan 260 238 250 227 225 231 218 226 236 248 238 238 242 247 262 nan nan nan nan nan nan nan nan nan nan
nan nan nan nan nan nan nan nan nan nan nan nan nan nan nan 282 284 301 276 274 255 267 240 231 229 227 233 251 244 242 240 240 243 250 nan nan nan nan nan nan nan nan nan nan
nan nan nan nan nan nan nan nan nan nan nan nan 332 nan 272 217 nan 285 244 254 262 251 239 231 239 239 240 234 235 238 244 241 241 247 nan nan nan nan nan nan nan nan nan nan
nan nan nan nan nan nan nan nan nan nan nan nan nan nan nan 188 222 229 239 234 255 263 240 229 225 233 249 233 232 229 228 221 227 nan 241 242 nan nan nan nan nan nan nan nan
nan nan nan nan nan nan nan nan nan nan nan nan nan nan nan nan 201 202 241 249 247 244 235 232 225 214 218 223 223 224 217 218 218 229 228 nan nan nan nan nan nan nan nan nan
nan nan nan nan nan nan nan nan nan nan nan nan nan nan nan nan nan 217 237 236 nan 210 217 203 201 205 nan 215 218 221 218 216 216 224 nan nan nan nan nan nan nan nan nan nan
nan nan nan nan nan nan nan nan nan nan nan nan nan nan nan nan nan nan nan 208 nan nan nan nan nan nan nan nan nan 227 224 nan nan 224 226 nan nan nan nan nan nan nan 240 nan